CW0949 Weather Reports


time (UTC)temp
C
wind
direction
speed
KPH
gust
KPH
rain 1hr
cm
rain 24hr
cm
rain mn
cm
humidity
%
barometer
mb
20260507130326 16 86 0.0 0.0 0.00 0.00 0.00 56 1016.5
20260507125318 15 86 0.0 0.0 0.00 0.00 0.00 54 1016.4
20260507124812 15 86 0.0 11.3 0.00 0.00 0.00 55 1016.4
20260507124308 16 86 0.0 11.3 0.00 0.00 0.00 56 1016.5
20260507123803 16 98 0.0 0.0 0.00 0.00 0.00 56 1016.3
20260507123304 15 100 0.0 0.0 0.00 0.00 0.00 55 1016.3
20260507122757 15 100 0.0 0.0 0.00 0.00 0.00 54 1016.3
20260507121733 15 99 0.0 0.0 0.00 0.00 0.00 55 1016.3
20260507121231 15 100 0.0 0.0 0.00 0.00 0.00 56 1016.3
20260507120730 15 100 0.0 0.0 0.00 0.00 0.00 56 1016.2
20260507120230 15 100 0.0 0.0 0.00 0.00 0.00 60 1016.3
20260507115729 15 100 0.0 0.0 0.00 0.00 0.00 61 1016.3
20260507115234 15 90 0.0 0.0 0.00 0.00 0.00 61 1016.2
20260507114731 15 90 0.0 0.0 0.00 0.00 0.00 61 1016.3
20260507114231 15 90 0.0 0.0 0.00 0.00 0.00 61 1016.3
20260507113730 15 90 0.0 0.0 0.00 0.00 0.00 63 1016.5
20260507112731 15 90 0.0 0.0 0.00 0.00 0.00 61 1016.4
20260507112230 15 90 0.0 0.0 0.00 0.00 0.00 63 1016.5
20260507111730 15 90 0.0 0.0 0.00 0.00 0.00 60 1016.5
20260507111230 15 90 0.0 0.0 0.00 0.00 0.00 60 1016.4
20260507110730 15 90 0.0 0.0 0.00 0.00 0.00 60 1016.5
20260507110230 15 91 0.0 0.0 0.00 0.00 0.00 60 1016.6
20260507105730 15 91 0.0 0.0 0.00 0.00 0.00 59 1016.6
20260507105230 16 91 0.0 1.6 0.00 0.00 0.00 61 1016.5
20260507104724 16 92 0.0 3.2 0.00 0.00 0.00 62 1016.5
20260507104216 16 84 0.0 6.4 0.00 0.00 0.00 60 1016.5
20260507103714 16 88 0.0 6.4 0.00 0.00 0.00 62 1016.4
20260507103213 15 91 0.0 0.0 0.00 0.00 0.00 63 1016.5
20260507102708 15 91 0.0 0.0 0.00 0.00 0.00 59 1016.5
20260507101703 15 95 0.0 4.8 0.00 0.00 0.00 61 1016.5
20260507101202 15 71 0.0 4.8 0.00 0.00 0.00 61 1016.4
20260507100703 15 13 0.0 0.0 0.00 0.00 0.00 63 1016.4
20260507100202 15 0 0.0 9.7 0.00 0.00 0.00 65 1016.4
20260507095706 15 343 0.0 9.7 0.00 0.00 0.00 67 1016.3
20260507095203 14 62 0.0 0.0 0.00 0.00 0.00 68 1016.3
20260507094703 14 63 0.0 0.0 0.00 0.00 0.00 67 1016.4
20260507094203 14 63 0.0 0.0 0.00 0.00 0.00 68 1016.4
20260507093702 14 63 0.0 0.0 0.00 0.00 0.00 67 1016.4
20260507093201 14 63 0.0 0.0 0.00 0.00 0.00 66 1016.4
20260507092702 14 71 0.0 0.0 0.00 0.00 0.00 70 1016.4
20260507092202 14 60 0.0 0.0 0.00 0.00 0.00 70 1016.3
20260507091701 14 62 0.0 0.0 0.00 0.00 0.00 70 1016.4
20260507091202 13 65 0.0 0.0 0.00 0.00 0.00 70 1016.4
20260507090701 13 36 0.0 0.0 0.00 0.00 0.00 71 1016.4
20260507090201 13 39 0.0 0.0 0.00 0.00 0.00 68 1016.5
20260507085700 13 39 0.0 0.0 0.00 0.00 0.00 70 1016.4
20260507084201 13 67 0.0 0.0 0.00 0.00 0.00 74 1016.4
20260507083701 13 67 0.0 0.0 0.00 0.00 0.00 74 1016.4
20260507083202 12 49 0.0 0.0 0.00 0.00 0.00 75 1016.4
20260507082700 12 49 0.0 0.0 0.00 0.00 0.00 75 1016.4
20260507081656 12 55 0.0 0.0 0.00 0.00 0.00 77 1016.4
20260507081155 12 57 0.0 0.0 0.00 0.00 0.00 76 1016.3
20260507080153 11 44 0.0 0.0 0.00 0.00 0.00 77 1016.4
20260507075652 11 45 0.0 0.0 0.00 0.00 0.00 79 1016.3
20260507075151 11 45 0.0 0.0 0.00 0.00 0.00 79 1016.3
20260507074651 11 46 0.0 0.0 0.00 0.00 0.00 80 1016.2
20260507074152 11 46 0.0 0.0 0.00 0.00 0.00 80 1016.2
20260507073651 11 46 0.0 0.0 0.00 0.00 0.00 80 1016.1
20260507073148 11 48 0.0 0.0 0.00 0.00 0.00 81 1016.1
20260507072146 10 49 0.0 0.0 0.00 0.00 0.00 82 1016.0
20260507071643 10 49 0.0 0.0 0.00 0.00 0.00 82 1016.0
20260507071144 10 50 0.0 0.0 0.00 0.00 0.00 83 1016.0
20260507070641 10 51 0.0 0.0 0.00 0.00 0.00 83 1016.0
20260507070140 10 51 0.0 0.0 0.00 0.00 0.00 84 1015.9
20260507065638 10 51 0.0 0.0 0.00 0.00 0.00 84 1015.9
20260507065135 10 51 0.0 0.0 0.00 0.00 0.00 84 1015.9
20260507064634 10 53 0.0 0.0 0.00 0.00 0.00 85 1016.0
20260507064135 10 55 0.0 0.0 0.00 0.00 0.00 85 1015.9
20260507063631 10 55 0.0 0.0 0.00 0.00 0.00 86 1015.9
20260507063133 10 57 0.0 0.0 0.00 0.00 0.00 86 1016.0
20260507062632 10 55 0.0 0.0 0.00 0.00 0.00 86 1015.9
20260507062132 10 49 0.0 0.0 0.00 0.00 0.00 87 1015.8
20260507061129 10 43 0.0 0.0 0.00 0.00 0.00 88 1015.7
20260507060630 10 43 0.0 0.0 0.00 0.00 0.00 88 1015.6
20260507055128 10 43 0.0 0.0 0.00 0.00 0.00 89 1015.5
20260507054128 10 44 0.0 0.0 0.00 0.00 0.00 89 1015.5
20260507053629 10 44 0.0 0.0 0.00 0.00 0.00 89 1015.5
20260507053129 10 44 0.0 0.0 0.00 0.00 0.00 89 1015.5
20260507052627 10 44 0.0 0.0 0.00 0.00 0.00 89 1015.4
20260507051625 10 44 0.0 0.0 0.00 0.00 0.00 89 1015.2
20260507051124 10 44 0.0 0.0 0.00 0.00 0.00 89 1015.1
20260507050625 9 44 0.0 0.0 0.00 0.00 0.00 89 1015.1
20260507050123 9 44 0.0 0.0 0.00 0.00 0.00 89 1015.1
20260507045122 9 44 0.0 0.0 0.00 0.00 0.00 89 1015.0
20260507044619 9 44 0.0 0.0 0.00 0.00 0.00 88 1015.0
20260507044120 9 44 0.0 0.0 0.00 0.00 0.00 89 1014.9
20260507043619 9 44 0.0 0.0 0.00 0.00 0.00 89 1014.8
20260507043117 9 44 0.0 0.0 0.00 0.00 0.00 89 1014.7
20260507042617 10 44 0.0 0.0 0.00 0.00 0.00 89 1014.8
20260507041115 10 44 0.0 0.0 0.00 0.00 0.00 89 1014.6
20260507040614 10 44 0.0 0.0 0.00 0.00 0.00 89 1014.6
20260507035612 10 44 0.0 0.0 0.00 0.00 0.00 89 1014.5
20260507035112 10 44 0.0 0.0 0.00 0.00 0.00 88 1014.4
20260507034610 10 44 0.0 0.0 0.00 0.00 0.00 88 1014.3
20260507034109 10 44 0.0 0.0 0.00 0.00 0.00 88 1014.3
20260507033609 10 44 0.0 0.0 0.00 0.00 0.00 88 1014.3
20260507033109 10 44 0.0 0.0 0.00 0.00 0.00 88 1014.2
20260507032107 10 44 0.0 0.0 0.00 0.00 0.00 88 1014.2
20260507031607 10 44 0.0 0.0 0.00 0.00 0.00 88 1014.1
20260507031107 10 44 0.0 0.0 0.00 0.00 0.00 88 1014.2
20260507030607 10 44 0.0 0.0 0.00 0.00 0.00 89 1014.2
20260507025606 10 44 0.0 0.0 0.00 0.00 0.00 89 1014.1
20260507025105 10 44 0.0 0.0 0.00 0.00 0.00 89 1014.1
20260507024603 10 44 0.0 0.0 0.00 0.00 0.00 89 1014.0
20260507024103 10 44 0.0 0.0 0.00 0.00 0.00 88 1014.1
20260507023604 10 44 0.0 0.0 0.00 0.00 0.00 88 1014.1
20260507022603 10 44 0.0 0.0 0.00 0.00 0.00 88 1013.9
20260507022102 10 44 0.0 0.0 0.00 0.00 0.00 88 1014.1
20260507021606 10 44 0.0 0.0 0.00 0.00 0.00 88 1014.0
20260507021102 10 44 0.0 0.0 0.00 0.03 0.00 88 1013.9
20260507020603 10 44 0.0 0.0 0.00 0.03 0.00 88 1013.9
20260507015602 10 44 0.0 0.0 0.00 0.03 0.00 86 1013.9
20260507015102 10 44 0.0 0.0 0.00 0.03 0.00 86 1013.8
20260507014102 10 44 0.0 0.0 0.00 0.03 0.00 86 1013.8
20260507013102 10 44 0.0 0.0 0.00 0.03 0.00 87 1013.9
20260507012602 10 44 0.0 0.0 0.00 0.03 0.00 86 1013.8
20260507012102 10 44 0.0 0.0 0.00 0.03 0.00 86 1013.7
20260507011103 10 44 0.0 0.0 0.00 0.03 0.00 85 1013.8
20260507010602 10 44 0.0 0.0 0.00 0.03 0.00 84 1013.7
20260507005601 10 44 0.0 0.0 0.00 0.03 0.00 86 1013.7
20260507005102 10 44 0.0 0.0 0.00 0.03 0.00 86 1013.8
20260507004600 10 44 0.0 0.0 0.00 0.03 0.00 85 1013.7
20260507003601 10 44 0.0 0.0 0.00 0.03 0.00 85 1013.7
20260507002601 10 44 0.0 0.0 0.00 0.03 0.00 83 1013.5
20260507002100 10 44 0.0 0.0 0.00 0.03 0.00 83 1013.5
20260507001600 10 44 0.0 0.0 0.00 0.03 0.00 83 1013.5
20260507001100 10 44 0.0 0.0 0.00 0.03 0.00 83 1013.5
20260507000100 10 44 0.0 0.0 0.00 0.03 0.00 83 1013.6
20260506235559 10 44 0.0 0.0 0.00 0.03 0.00 83 1013.5
20260506234558 10 44 0.0 0.0 0.00 0.03 0.00 82 1013.5
20260506234058 10 44 0.0 0.0 0.00 0.03 0.00 82 1013.5
20260506233058 10 44 0.0 0.0 0.00 0.03 0.00 82 1013.4
20260506232555 10 44 0.0 0.0 0.00 0.03 0.00 82 1013.3
20260506232055 10 44 0.0 0.0 0.00 0.03 0.00 82 1013.4
20260506231554 10 44 0.0 0.0 0.00 0.03 0.00 82 1013.4
20260506231053 10 44 0.0 0.0 0.00 0.03 0.00 82 1013.2
20260506230550 10 44 0.0 0.0 0.00 0.03 0.00 82 1013.2
20260506230050 10 44 0.0 0.0 0.00 0.03 0.00 82 1013.0
20260506225049 10 44 0.0 0.0 0.00 0.03 0.00 81 1013.0
20260506224547 10 44 0.0 0.0 0.00 0.03 0.00 81 1013.0
20260506224049 10 44 0.0 0.0 0.00 0.03 0.00 81 1012.9
20260506223548 10 44 0.0 0.0 0.00 0.03 0.00 81 1013.0
20260506222044 10 44 0.0 0.0 0.00 0.03 0.00 81 1012.9
20260506221544 10 44 0.0 0.0 0.00 0.03 0.00 81 1012.9
20260506221042 10 44 0.0 0.0 0.00 0.03 0.00 81 1012.9
20260506220604 10 44 0.0 0.0 0.00 0.03 0.00 80 1012.8
20260506215540 10 44 0.0 0.0 0.00 0.03 0.03 80 1012.9
20260506215036 10 44 0.0 0.0 0.00 0.03 0.03 80 1012.8
20260506214536 10 44 0.0 0.0 0.00 0.03 0.03 80 1012.9
20260506214036 11 44 0.0 0.0 0.00 0.03 0.03 80 1012.9
20260506213534 11 44 0.0 0.0 0.00 0.03 0.03 80 1012.9
20260506212530 11 44 0.0 0.0 0.00 0.05 0.03 80 1012.9
20260506212031 11 44 0.0 0.0 0.00 0.05 0.03 79 1012.9
20260506211530 11 44 0.0 0.0 0.00 0.05 0.03 79 1012.8
20260506211030 11 44 0.0 0.0 0.00 0.05 0.03 79 1012.6
20260506210531 11 44 0.0 0.0 0.00 0.05 0.03 79 1012.7
20260506210030 11 44 0.0 0.0 0.00 0.05 0.03 79 1012.7
20260506205528 11 44 0.0 0.0 0.00 0.05 0.03 78 1012.6
20260506205028 11 44 0.0 0.0 0.00 0.05 0.03 78 1012.6
20260506204026 11 44 0.0 0.0 0.00 0.05 0.03 78 1012.5
20260506203527 11 44 0.0 0.0 0.00 0.05 0.03 77 1012.4
20260506202526 11 44 0.0 0.0 0.00 0.05 0.03 76 1012.4
20260506202025 11 44 0.0 0.0 0.00 0.05 0.03 76 1012.4
20260506201524 11 44 0.0 0.0 0.00 0.05 0.03 76 1012.3
20260506201024 11 45 0.0 0.0 0.00 0.05 0.03 76 1012.2
20260506200524 11 46 0.0 0.0 0.00 0.05 0.03 76 1012.2
20260506200024 11 48 0.0 0.0 0.00 0.05 0.03 76 1012.2
20260506195024 11 43 0.0 4.8 0.00 0.05 0.03 75 1012.2
20260506194021 11 55 0.0 6.4 0.00 0.05 0.03 76 1012.2
20260506193520 11 67 0.0 0.0 0.00 0.05 0.03 76 1012.1
20260506193020 11 61 0.0 0.0 0.00 0.05 0.03 76 1012.0
20260506192516 11 71 0.0 0.0 0.00 0.05 0.03 77 1012.0
20260506192014 11 63 0.0 0.0 0.00 0.05 0.03 77 1011.9
20260506191512 11 63 0.0 0.0 0.00 0.05 0.03 77 1011.9
20260506191017 11 78 0.0 3.2 0.00 0.05 0.03 78 1011.8
20260506190510 11 78 0.0 3.2 0.00 0.05 0.03 77 1011.9
20260506190017 11 74 0.0 8.0 0.00 0.05 0.03 77 1011.8
20260506185506 11 38 0.0 11.3 0.00 0.05 0.03 77 1011.7
20260506185004 11 13 0.0 11.3 0.00 0.05 0.03 77 1011.6
20260506184008 11 26 1.6 14.5 0.00 0.05 0.03 76 1011.6
20260506183509 11 20 0.0 14.5 0.00 0.05 0.03 76 1011.6
20260506183015 11 355 0.0 9.7 0.00 0.05 0.03 76 1011.6
20260506182510 11 82 0.0 0.0 0.00 0.05 0.03 76 1011.6
20260506182008 11 97 1.6 14.5 0.00 0.05 0.03 76 1011.5
20260506181511 11 103 1.6 14.5 0.00 0.05 0.03 75 1011.3
20260506181005 11 82 0.0 12.9 0.00 0.05 0.03 75 1011.2
20260506180503 11 40 0.0 0.0 0.00 0.05 0.03 74 1011.2
20260506180012 12 60 0.0 0.0 0.00 0.05 0.03 74 1011.2
20260506175503 12 62 1.6 20.9 0.00 0.05 0.03 72 1011.0
20260506175003 12 42 1.6 20.9 0.00 0.05 0.03 71 1010.9
20260506174509 12 30 1.6 12.9 0.00 0.05 0.03 71 1010.8
20260506174002 12 34 3.2 12.9 0.00 0.05 0.03 69 1010.8
20260506173006 12 86 1.6 11.3 0.00 0.05 0.03 68 1010.7
20260506172502 12 81 1.6 11.3 0.00 0.05 0.03 68 1010.7
20260506172002 12 88 3.2 12.9 0.00 0.05 0.03 68 1010.6
20260506171506 12 60 4.8 17.7 0.00 0.05 0.03 67 1010.6
20260506171002 12 5 6.4 17.7 0.00 0.05 0.03 66 1010.5
20260506170501 13 5 4.8 16.1 0.00 0.05 0.03 65 1010.4
20260506165502 13 17 6.4 16.1 0.00 0.05 0.03 64 1010.3
20260506165002 13 346 4.8 24.1 0.00 0.05 0.03 64 1010.4
20260506164506 13 42 3.2 24.1 0.00 0.05 0.03 62 1010.3
20260506164002 13 53 3.2 17.7 0.00 0.05 0.03 63 1010.2
20260506163502 13 0 4.8 20.9 0.00 0.05 0.03 62 1010.1
20260506163006 13 0 1.6 20.9 0.00 0.05 0.03 61 1010.1
20260506162501 14 0 0.0 17.7 0.00 0.05 0.03 59 1010.1
20260506162001 14 0 0.0 16.1 0.00 0.05 0.03 61 1010.0
20260506161002 13 92 1.6 16.1 0.00 0.05 0.03 61 1010.0
20260506160502 14 78 1.6 16.1 0.00 0.05 0.03 62 1010.1
20260506160006 13 294 1.6 16.1 0.00 0.05 0.03 62 1010.0
20260506155501 13 5 0.0 14.5 0.00 0.05 0.03 62 1009.8
20260506155002 13 32 0.0 6.4 0.00 0.05 0.03 63 1009.8
20260506154507 13 38 1.6 20.9 0.00 0.05 0.03 65 1009.9
20260506153501 13 36 3.2 17.7 0.00 0.05 0.03 63 1009.9
20260506153006 14 355 1.6 16.1 0.00 0.05 0.03 66 1009.9
20260506152001 14 19 1.6 14.5 0.00 0.05 0.03 64 1009.9
20260506151507 15 84 1.6 12.9 0.00 0.05 0.03 63 1009.8
20260506151002 15 59 0.0 6.4 0.00 0.05 0.03 64 1009.8
20260506150502 15 51 0.0 8.0 0.00 0.05 0.03 64 1009.8
20260506150008 15 54 0.0 9.7 0.00 0.05 0.03 64 1009.7
20260506145502 15 9 1.6 12.9 0.00 0.05 0.03 63 1009.7
20260506144506 15 59 1.6 17.7 0.00 0.05 0.03 63 1009.6
20260506143501 15 76 1.6 17.7 0.00 0.05 0.03 61 1009.6
20260506143001 15 15 1.6 8.0 0.00 0.05 0.03 63 1009.6
20260506142002 15 5 1.6 16.1 0.00 0.05 0.03 63 1009.7
20260506141002 15 14 0.0 11.3 0.00 0.05 0.03 60 1009.6
20260506140501 15 32 0.0 14.5 0.00 0.05 0.03 61 1009.6
20260506140001 15 13 1.6 14.5 0.00 0.05 0.03 60 1009.6
20260506135501 15 70 1.6 16.1 0.00 0.05 0.03 61 1009.6
20260506134958 15 65 1.6 16.1 0.00 0.05 0.03 60 1009.5
20260506134458 15 355 1.6 14.5 0.00 0.05 0.03 59 1009.5
20260506133956 15 42 0.0 11.3 0.00 0.05 0.03 62 1009.4
20260506132953 15 44 0.0 11.3 0.00 0.05 0.03 61 1009.4
20260506131951 15 69 1.6 17.7 0.00 0.05 0.03 59 1009.4
20260506131451 15 34 1.6 14.5 0.00 0.05 0.03 60 1009.3